OpenBCM V1.13 (Linux)

Packet Radio Mailbox

DB0FHN

[JN59NK Nuernberg]

 Login: GUEST





  
LU9DCE > KEP      16.03.19 19:34l 252 Lines 12370 Bytes #999 (0) @ WW
BID : 20158_LU9DCE
Read: DF7EAV DK3UZ GUEST
Subj: TLE 16 03
Path: DB0FHN<DB0BLO<DB0ERF<DB0RES<IR2UBX<IZ3LSV<IQ2LB<GB7COW<GB7YEW<VA3TOK<
      LU9DCE
Sent: 190316/1800Z 20158@LU9DCE.TOR.BA.ARG.SOAM LinBPQ6.0.18

            __    _  _  ___  ____   ___  ____    ____  ____  ____
           (  )  / )( \/ _ \(    \ / __)(  __)  (  _ \(  _ \/ ___)
           / (_/\) \/ (\__  )) D (( (__  ) _)    ) _ ( ) _ (\___ \
           \____/\____/(___/(____/ \___)(____)  (____/(____/(____/
               ESTACION DE PACKET RADIO - BUENOS AIRES (GF05OM)
                   BOLETINES INFORMATIVOS PROGRAMADOS (BIP)
                  SOPORTE TECNICO - HELLOCODELINUX@GMAIL.COM

+----------------------------------------------------------------------------+
OSCAR 7
1  7530U 74089B   19074.89258090 -.00000020  00000-0  15747-3 0  9995
2  7530 101.7324  43.5703 0012141 168.5314 215.9583 12.53637172 28644
OSCAR 11 (UoSAT 2)
1 14781U 84021B   19074.63670318 +.00000049 +00000-0 +12147-4 0  9993
2 14781 097.6212 103.8002 0006960 272.2970 087.7448 14.83069269863670
OSCAR 19 (LUSAT)
1 20442U 90005G   19074.84368274 -.00000008 +00000-0 +13423-4 0  9995
2 20442 098.6398 017.0504 0012877 070.8303 289.4273 14.32919360522732
EYESAT A
1 22825U 93061C   19074.90471978 -.00000001 +00000-0 +17504-4 0  9997
2 22825 098.8967 061.4120 0007349 276.2567 083.7777 14.30053191328133
ITAMSAT
1 22826U 93061D   19074.92845215 +.00000007 +00000-0 +20703-4 0  9999
2 22826 098.8908 061.4395 0007854 263.6795 096.3492 14.30386287328350
RADIO ROSTO
1 23439U 94085A   19074.90823556 -.00000019 +00000-0 +65735-3 0  9996
2 23439 064.8139 269.4042 0148428 131.3893 330.9583 11.27568272997205
JAS 2
1 24278U 96046B   19074.90227387 +.00000009 +00000-0 +42434-4 0  9997
2 24278 098.5225 241.2386 0351231 125.7983 237.6341 13.53089576114731
TECHSAT 1B
1 25397U 98043D   19074.81037588 -.00000017 +00000-0 +11552-4 0  9998
2 25397 098.6803 016.1497 0000933 010.9489 349.1710 14.23661715074154
ISS (ZARYA)
1 25544U 98067A   19074.89125941  .00000314  00000-0  12466-4 0  9991
2 25544  51.6417 105.0492 0003983 108.2501 308.8714 15.52804895160765
PCSAT
1 26931U 01043C   19074.83644040 -.00000010 +00000-0 +27876-4 0  9995
2 26931 067.0495 248.4499 0005413 274.3301 085.7181 14.30535076911338
SAUDISAT 1C
1 27607U 02058C   19074.93229499 -.00000037 +00000-0 +15809-4 0  9993
2 27607 064.5563 339.3076 0082347 274.5698 084.6002 14.75526907872923
CUTE-1
1 27844U 03031E   19074.95556023 +.00000052 +00000-0 +43255-4 0  9998
2 27844 098.6868 084.5737 0008892 309.6874 050.3519 14.22164665814788
CUBESAT XI 4
1 27848U 03031J   19074.92079255 +.00000036 +00000-0 +36099-4 0  9996
2 27848 098.6948 085.0176 0008940 321.9741 038.0805 14.21761613814649
MOZHAYETS 4
1 27939U 03042A   19074.81610735  .00000022  00000-0  12581-4 0  9996
2 27939  98.0225 212.5698 0013070  15.2104 344.9497 14.66760322826637
CUBESAT XI 5
1 28895U 05043F   19074.82542649  .00000102  00000-0  28368-4 0  9999
2 28895  97.9427 220.8923 0015485 292.6942  67.2624 14.63638020713602
CUTE-1.7+APD II
1 32785U 08021C   19074.81980997 +.00000193 +00000-0 +26434-4 0  9994
2 32785 097.5491 079.0162 0012209 211.9606 148.0872 14.88262585589502
DELFI C3
1 32789U 08021G   19074.79029170 +.00000723 +00000-0 +52661-4 0  9992
2 32789 097.4768 127.2726 0014015 091.3182 268.9652 15.06715881592572
SEEDS
1 32791U 08021J   19074.66163689 +.00000225 +00000-0 +28217-4 0  9992
2 32791 097.5303 084.7273 0013130 187.8872 172.2142 14.90751868589876
YUBELEINY
1 32953U 08025A   19074.83440174 +.00000020 +00000-0 +75656-4 0  9994
2 32953 082.5053 203.7374 0018483 339.2755 020.7574 12.43088021490525
PRISM (HITOMI)
1 33493U 09002B   19074.72229181 +.00000961 +00000-0 +89894-4 0  9994
2 33493 098.1232 352.0815 0016230 133.1819 227.0760 14.96542264550930
KKS-1 (KISEKI)
1 33499U 09002H   19074.93364706 +.00000096 +00000-0 +22236-4 0  9992
2 33499 098.3549 270.5832 0009941 142.1581 218.0327 14.75413866544821
SWISSCUBE
1 35932U 09051B   19074.91618071 +.00000130 +00000-0 +40458-4 0  9990
2 35932 098.5758 238.1702 0008810 096.8548 263.3651 14.56252751502940
BEESAT
1 35933U 09051C   19074.92507913 +.00000109 +00000-0 +35607-4 0  9990
2 35933 098.5791 239.8891 0006999 107.8692 252.3269 14.56345912503018
ITUPSAT 1
1 35935U 09051E   19074.92826155 +.00000084 +00000-0 +30573-4 0  9993
2 35935 098.5903 240.1363 0009318 105.2045 255.0182 14.55510191502820
XIWANG-1 (HOPE-1)
1 36122U 09072B   19074.72984655 -.00000049  00000-0 -18651-4 0  9999
2 36122 100.0745  81.5762 0007183 198.8850 161.1995 13.16348524444382
TISAT 1
1 36799U 10035E   19074.92706436 +.00000213 +00000-0 +27648-4 0  9998
2 36799 098.1405 224.0186 0013044 042.2704 317.9517 14.91025597470442
JUGNU
1 37839U 11058B   19074.67350370  .00000327  00000-0  32417-4 0  9990
2 37839  19.9604 190.9755 0019031 359.9979 135.1420 14.12643999383808
SRMSAT
1 37841U 11058D   19074.87220650 +.00000316 +00000-0 +28398-4 0  9993
2 37841 019.9714 244.5860 0011872 235.2222 275.2748 14.10626525383193
M-CUBED/EXP-1 PRIME
1 37855U 11061F   19074.81602197 +.00000744 +00000-0 +45499-4 0  9992
2 37855 101.7275 281.6530 0174323 357.9867 002.0623 15.05192856402037
HORYU 2
1 38340U 12025D   19074.64835974 +.00000154 +00000-0 +30515-4 0  9993
2 38340 098.3411 110.3286 0012720 070.1611 290.0967 14.75678301356734
STRAND 1
1 39090U 13009E   19074.54506781  .00000008  00000-0  17914-4 0  9995
2 39090  98.4978 282.0437 0008592 205.4758 154.6005 14.35073686316744
SOMP
1 39134U 13015E   19074.94740139 +.00001129 +00000-0 +61522-4 0  9991
2 39134 064.8643 327.3317 0021643 317.6787 042.2670 15.19896310325817
BEESAT 3
1 39135U 13015F   19074.90046399 +.00000678 +00000-0 +43708-4 0  9999
2 39135 064.8702 344.4774 0009844 294.2980 065.7118 15.17258872325477
BEESAT 2
1 39136U 13015G   19074.90245953 +.00000832 +00000-0 +52170-4 0  9992
2 39136 064.8717 348.0038 0011353 293.1588 066.8341 15.16702155325407
CUBEBUG 1
1 39153U 13018D   19074.80810298  .00000176  00000-0  29919-4 0  9999
2 39153  97.9746 173.4988 0017898 142.7377 217.5080 14.80524662317786
ZACUBE
1 39417U 13066B   19074.91926774 +.00000207 +00000-0 +32434-4 0  9995
2 39417 097.5687 093.7180 0058519 346.2028 013.7583 14.81068257287016
TRITON 1
1 39427U 13066M   19074.90427428 +.00000202 +00000-0 +39911-4 0  9999
2 39427 097.6673 058.1921 0115298 108.7424 252.6334 14.67791214284240
GOMX 1
1 39430U 13066Q   19074.85829703  .00000121  00000-0  30892-4 0  9998
2 39430  97.7345  37.7243 0150696 192.8175 166.9205 14.59206286282770
HUMSAT D
1 39433U 13066T   19074.72507368 +.00000167 +00000-0 +21732-4 0  9990
2 39433 097.5669 126.0500 0029316 256.6134 103.1817 14.92103643287739
CUBEBUG 2
1 39440U 13066AA  19074.96687684 +.00000230 +00000-0 +38830-4 0  9992
2 39440 097.6014 079.0039 0081169 033.6597 326.9731 14.75805962284805
FUNCUBE 1
1 39444U 13066AE  19074.97182008 +.00000251 +00000-0 +37368-4 0  9995
2 39444 097.5676 095.6169 0057492 340.2817 019.6173 14.81876937285314
UWE-3
1 39446U 13066AG  19074.93012873 +.00000215 +00000-0 +35160-4 0  9993
2 39446 097.5839 085.8646 0070315 010.5770 349.6901 14.78341089284676
SPROUT
1 39770U 14029E   19074.90379147 +.00000374 +00000-0 +47648-4 0  9990
2 39770 097.8798 178.8678 0010207 043.6353 316.5666 14.87209104260743
UNISAT 6
1 40012U 14033C   19074.83923706 +.00000139 +00000-0 +28109-4 0  9994
2 40012 097.7721 305.4552 0059443 044.8247 315.7742 14.73937021254715
DUCHIFAT 1
1 40021U 14033M   19074.75809200 +.00000318 +00000-0 +38399-4 0  9998
2 40021 097.9222 359.0556 0013252 009.7751 350.3722 14.90545441257402
QB50P1
1 40025U 14033R   19074.74049711 +.00000238 +00000-0 +31339-4 0  9992
2 40025 097.9064 354.5800 0012923 018.2944 341.8735 14.88882039256687
CHUBUSAT 1
1 40300U 14070C   19074.79571779 +.00000633 +00000-0 +30643-4 0  9994
2 40300 097.3360 151.3490 0021035 032.6879 082.4522 15.21947823241581
NUDT-PHONESAT
1 40900U 15049B   19074.74280303  .00001711  00000-0  77030-4 0  9991
2 40900  97.4404  85.0259 0014164 150.6582 296.0944 15.22369860193217
ZDPS 2A
1 40901U 15049C   19074.79081147  .00000791  00000-0  42676-4 0  9997
2 40901  97.4617  81.9944 0013811 165.2021 247.3218 15.17548092192849
ZDPS 2B
1 40902U 15049D   19074.80738142  .00000731  00000-0  39981-4 0  9993
2 40902  97.4542  79.6344 0013912 162.7616 274.4341 15.17322128192825
XW-2A
1 40903U 15049E   19074.86641204  .00001700  00000-0  42521-4 0  9993
2 40903  97.3511 117.0464 0015233 123.6053 230.6458 15.41461666195633
KAITUO 1A
1 40904U 15049F   19074.79071022  .00000091  00000-0  83296-5 0  9998
2 40904  97.4665  78.4359 0014956 169.9489   6.8859 15.15266837192623
OBJECT G
1 40905U 15049G   19074.79092760  .00000471  00000-0  29320-4 0  9990
2 40905  97.4693  76.1071 0016014 164.4353 300.3627 15.14204595192513
XW-2C
1 40906U 15049H   19074.92103773 +.00000665 +00000-0 +38487-4 0  9992
2 40906 097.4674 078.5839 0015527 160.7190 261.6401 15.15541291192648
XW-2D
1 40907U 15049J   19074.78240219  .00000529  00000-0  31208-4 0  9997
2 40907  97.4645  78.1246 0014901 158.8379 287.3668 15.15717332192637
LILACSAT 2
1 40908U 15049K   19074.92929124 +.00000558 +00000-0 +34493-4 0  9994
2 40908 097.4778 077.2622 0016298 163.6817 256.7625 15.13723103192471
XW-2F
1 40910U 15049M   19074.95811022 +.00000636 +00000-0 +35436-4 0  9992
2 40910 097.4626 080.1054 0015545 152.4932 263.2748 15.17079692192656
XW-2B
1 40911U 15049N   19074.74802694  .00000619  00000-0  35955-4 0  9992
2 40911  97.4677  78.7170 0014768 159.5284 304.3358 15.15651450192525
KAITUO 1B
1 40912U 15049P   19074.93003694 +.00001023 +00000-0 +51500-4 0  9991
2 40912 097.4515 083.5216 0016392 138.2043 252.2663 15.19365598192927
TIANWANG 1C (TW-1C)
1 40926U 15051B   19074.84209038  .00010134  00000-0  16026-3 0  9995
2 40926  97.1489 121.2069 0008884  17.9847  69.4863 15.53609371195423
